Address 0x5d81209c9116b6cba89af966ca51f15b50779f70

 
Txn Hash
Block
From
To
Value [Txn Fee]
0xa53dfb45d366426272da9cb2679416c6f3d99c6de283d918f6acc87105dabeb781632272021-06-10 2:14:276 days 14 hrs ago0x5d81209c9116b6cba89af966ca51f15b50779f70OUT PancakeSwap: Router0.01 BNB0.000867555
0x557c5c8ef40103edde5760c9269200f7e0e5a10466fe310afea540c794b9c70f81631362021-06-10 2:09:546 days 14 hrs ago0x5d81209c9116b6cba89af966ca51f15b50779f70OUT PancakeSwap: Router0 BNB0.00095972
0x81855ad2ec218dcc430de22a6762e53326e7c66ed3a9b328cd8f63a7fe40941481631222021-06-10 2:09:126 days 14 hrs ago0x5d81209c9116b6cba89af966ca51f15b50779f70OUT Spore Engineering: SPORE Token0 BNB0.000222515
0x21f1d81514d68a0b38b1651fab2940ee00d93c1ab0bd9dcb1bd4618e896c383981627292021-06-10 1:49:336 days 14 hrs ago0x5d81209c9116b6cba89af966ca51f15b50779f70OUT PancakeSwap: Router v20 BNB0.00104353
0x245641ae1d30fa8af3f91c430579d26b9811badbc11fb6826feaf46b600dd63a81626942021-06-10 1:47:486 days 14 hrs ago0x5d81209c9116b6cba89af966ca51f15b50779f70OUT PancakeSwap: Router v20 BNB0.00098305
0x6b88d91969a356bc8d0bb6974b66e86fcb31c872eb1d498e15b33076988a8d7281626852021-06-10 1:47:216 days 14 hrs ago0x5d81209c9116b6cba89af966ca51f15b50779f70OUT Spore Engineering: SPORE Token0 BNB0.000222515
0xc09308763a95295d92622cce17e04e76f1c7bf55b30addb923828500ced7fa5981622242021-06-10 1:24:166 days 14 hrs ago0x5d81209c9116b6cba89af966ca51f15b50779f70OUT PancakeSwap: Router v20.02 BNB0.001289555
0x8a73c6d95f9bc4477b8ff4daabc8feaf549b630a8961c6cf7263e65dd48c583d75309732021-05-19 1:02:2528 days 15 hrs ago0x5d81209c9116b6cba89af966ca51f15b50779f70OUT PancakeSwap: Router v20.03 BNB0.000706325
0xfb7135d7b5687b919036b6eb733713e7e484439397db874337ae3824d92ac70c74673932021-05-16 19:19:1530 days 21 hrs ago0x5d81209c9116b6cba89af966ca51f15b50779f70OUT PancakeSwap: Router v20.03 BNB0.00098268
0x71ee0a7722954c340d63e661c5a52cdad564f39115ea693221589c870e92ae6574672252021-05-16 19:10:5130 days 21 hrs ago0x5d81209c9116b6cba89af966ca51f15b50779f70OUT PancakeSwap: Router v20.03 BNB0.000882565
0x54a39d36a6673351fa74cc596f81baf25fa4767ac6b1f6cf1e1e0173198f124f74671832021-05-16 19:08:4530 days 21 hrs ago0x5d81209c9116b6cba89af966ca51f15b50779f70OUT PancakeSwap: Router v20.07 BNB0.00053949
0xa53a88e535093270c1f4c2fab53482f30c21f2059eb51555de9c28239d5d84d274671272021-05-16 19:05:5730 days 21 hrs ago0x5d81209c9116b6cba89af966ca51f15b50779f70OUT PancakeSwap: Router v20 BNB0.00103912
0x224c53bcf17fdc051067918e6274b19e9ee455f825e532e4a53aea7727a9419174671112021-05-16 19:05:0930 days 21 hrs ago0x5d81209c9116b6cba89af966ca51f15b50779f70OUT Humming Bird Finance: HMNG Token0 BNB0.000222625
0xc28fcca33381735ac240f351e7185449826e819c3c5235a394d254d69e05ee6174655462021-05-16 17:45:1730 days 22 hrs ago0x5d81209c9116b6cba89af966ca51f15b50779f70OUT PancakeSwap: Router v20.1 BNB0.000890835
0x1bbf16bf1c001db6090f316afa19af358ae93ed7e8cf881f0fc093115babe7e774619352021-05-16 14:39:3131 days 1 hr ago0x5d81209c9116b6cba89af966ca51f15b50779f70OUT PancakeSwap: Router v20.03 BNB0.00090558
0xf12adb3dc3b916a44c65a1866e54ccddad0b638841c0fe7742b7d442d53515e174618852021-05-16 14:37:0131 days 1 hr ago0x5d81209c9116b6cba89af966ca51f15b50779f70OUT PancakeSwap: Router v20.03 BNB0.00067485
0x54bafa69ceb83ec4ef2c17d9d1571609252e22258a8e7f86c7dd99fd1117788374618052021-05-16 14:33:0131 days 1 hr ago0x5d81209c9116b6cba89af966ca51f15b50779f70OUT PancakeSwap: Router v20.05 BNB0.000923825
0xf44cedeba2f191fc5600ea780f3837efb4527888920fa650b335be21c6216b2674458852021-05-16 1:07:5031 days 15 hrs ago0x5d81209c9116b6cba89af966ca51f15b50779f70OUT PancakeSwap: Router v20.1 BNB0.000683155
0x93383bea89cbf5f797db31d93ef9edfc979ba371267dfadfa0783e8b6497061a74458052021-05-16 1:03:5031 days 15 hrs ago0x5d81209c9116b6cba89af966ca51f15b50779f70OUT PancakeSwap: Router v20.003 BNB0.00060262
0xe44fffb9f2ea31bd492d98db7354aa067a6fec3b479d0cc6f19cce336c41bc8274457912021-05-16 1:03:0831 days 15 hrs ago0x5d81209c9116b6cba89af966ca51f15b50779f70OUT PancakeSwap: Router v20.003 BNB0.00060262
0xcee16cf88562531474f32be158de15500758c988f43c2c5857ab34cce3f8c89c74457732021-05-16 1:02:1431 days 15 hrs ago0x5d81209c9116b6cba89af966ca51f15b50779f70OUT PancakeSwap: Router v20.003 BNB0.00060262
0xf069aa559d1656fb2914fab0ab96345133edb784106551ffa4de477b7dd9348074457612021-05-16 1:01:3831 days 15 hrs ago0x5d81209c9116b6cba89af966ca51f15b50779f70OUT PancakeSwap: Router v20.003 BNB0.00060262
0x2d1364ebd4903d870480d766c37d6f89e25eaefe4e3d416be3b9c9409459c25874457532021-05-16 1:01:1431 days 15 hrs ago0x5d81209c9116b6cba89af966ca51f15b50779f70OUT PancakeSwap: Router v20.003 BNB0.00060262
0x0a314b7022fa85fc17343480885e154b819cf3f45665aa401ade6c6a5f6c507374457452021-05-16 1:00:5031 days 15 hrs ago0x5d81209c9116b6cba89af966ca51f15b50779f70OUT PancakeSwap: Router v20.003 BNB0.00060262
0xdde1766be6e9a9d90602ab72109f69cdbfce63da6ab192c8fe6ee1c79202459574457372021-05-16 1:00:2631 days 15 hrs ago0x5d81209c9116b6cba89af966ca51f15b50779f70OUT PancakeSwap: Router v20.003 BNB0.00060262
[ Download CSV Export 
Latest 10 internal transactions
Parent Txn Hash Block From To Value
0x557c5c8ef40103edde5760c9269200f7e0e5a10466fe310afea540c794b9c70f81631362021-06-10 2:09:546 days 14 hrs ago PancakeSwap: Router0x5d81209c9116b6cba89af966ca51f15b50779f700.004449314215714883 BNB
0x21f1d81514d68a0b38b1651fab2940ee00d93c1ab0bd9dcb1bd4618e896c383981627292021-06-10 1:49:336 days 14 hrs ago PancakeSwap: Router v20x5d81209c9116b6cba89af966ca51f15b50779f700.000286207496419346 BNB
0x245641ae1d30fa8af3f91c430579d26b9811badbc11fb6826feaf46b600dd63a81626942021-06-10 1:47:486 days 14 hrs ago PancakeSwap: Router v20x5d81209c9116b6cba89af966ca51f15b50779f700.000053092697096779 BNB
0x52a18af751ba29d4d39bca6cb1bdcdd153936fc6fbc5c985a9eb5b775e885eb675310902021-05-19 1:08:1628 days 15 hrs ago BSC: Token Hub0x5d81209c9116b6cba89af966ca51f15b50779f700.03 BNB
0xa53a88e535093270c1f4c2fab53482f30c21f2059eb51555de9c28239d5d84d274671272021-05-16 19:05:5730 days 21 hrs ago PancakeSwap: Router v20x5d81209c9116b6cba89af966ca51f15b50779f700.040385131692182352 BNB
0xdbde82017ed12929aebeb9b910575d27b350cfef81b8ba6c155091c28251d3d174637722021-05-16 16:15:1631 days 7 mins ago BSC: Token Hub0x5d81209c9116b6cba89af966ca51f15b50779f700.2 BNB
0xbec95efda9a90aeaf51a1078074bf2ae3098879436cf7a4cae6fdc92ebc0b80a74431862021-05-15 22:51:0831 days 17 hrs ago BSC: Token Hub0x5d81209c9116b6cba89af966ca51f15b50779f700.4 BNB
0xec261441b9ed61035104ab77bfc439955d29d0914f37ddab46903613e05a3c5273928372021-05-14 3:59:5833 days 12 hrs ago BSC: Token Hub0x5d81209c9116b6cba89af966ca51f15b50779f700.02 BNB
0x3e56d9df8b13e39b71a38fefb9d275dae1f62894b6d4a453233b2524e343205873903842021-05-14 1:56:0233 days 14 hrs ago BSC: Token Hub0x5d81209c9116b6cba89af966ca51f15b50779f700.05 BNB
0xffeb616c93a72afbe1585902240f802cdf71d2503ab96512308a9635ca33b03873896992021-05-14 1:21:4733 days 15 hrs ago BSC: Token Hub0x5d81209c9116b6cba89af966ca51f15b50779f700.4236441 BNB
[ Download CSV Export 
Loading

Contract Name:
0 BNB

Compiler Version
0

Optimization Enabled:
0 BNB

Other Settings:
-NA-
Block Transaction Gas Used Reward
Age Block Fee Address BC Fee Address Voting Power Jailed Incoming
Block Uncle Number Difficulty Gas Used Reward
Loading
Loading
Make sure to use the "Vote Down" button for any spammy posts, and the "Vote Up" for interesting conversations.